Date String (YYYY-MM-DD hh:mm:ss) UTC,Instrument flags,Ambient pressure (hPa),Sample flow (lpm),Bypass flow (lpm),Sample temperature (°C),Ambient temperature (°C),ASC tube jacket temperature (°C),LED temperature (°C),Box temperature (°C),Sample RH (%),Span deviation,Mass concentration (μg/m³),Mass concentration (μg/m³),Mass concentration (μg/m³)
DateTimeUTC,F1_M11,P_M11,Q1_M11,Q2_M11,T1_M11,T2_M11,T3_M11,T4_M11,T5_M11,U1_M11,ZSPAN_M11,X2_M11,X0_M11,X1_M11
2022-06-11 14:00:00,,0825.2,5.01,0.00,29.6,28.6,00.0,38.5,31.5,19.9,0000.0,0005.38,0014.84,0003.75
2022-06-11 14:01:00,,0825.2,5.00,0.00,29.6,28.6,00.0,38.5,31.5,19.9,0000.0,0005.41,0013.85,0003.75
2022-06-11 14:02:00,,0825.2,5.00,0.00,29.6,28.7,00.0,38.5,31.6,19.5,0000.0,0005.46,0013.88,0003.76
2022-06-11 14:03:00,,0825.2,5.00,0.00,29.7,28.8,00.0,38.5,31.6,19.6,0000.0,0005.47,0014.76,0003.75
2022-06-11 14:04:00,,0825.2,4.99,0.00,29.7,28.8,00.0,38.5,31.6,20.7,0000.0,0005.46,0014.61,0003.73
2022-06-11 14:05:00,,0825.2,4.99,0.00,29.7,28.8,00.0,38.5,31.6,20.4,0000.0,0005.42,0014.48,0003.72
2022-06-11 14:06:00,,0825.2,5.01,0.00,29.7,28.2,00.0,38.5,31.5,20.6,0000.0,0005.40,0014.98,0003.72
2022-06-11 14:07:00,,0825.2,4.99,0.00,29.6,27.6,00.0,38.4,31.3,20.8,0000.0,0005.39,0014.94,0003.71
2022-06-11 14:08:00,,0825.2,4.99,0.00,29.6,27.5,00.0,38.4,31.3,20.8,0000.0,0005.38,0015.01,0003.69
2022-06-11 14:09:00,,0825.1,5.01,0.00,29.5,27.6,00.0,38.4,31.2,21.0,0000.0,0005.34,0014.62,0003.68
2022-06-11 14:10:00,,0825.1,5.01,0.00,29.5,27.6,00.0,38.4,31.2,20.6,0000.0,0005.27,0014.51,0003.66
2022-06-11 14:11:00,,0825.1,5.00,0.00,29.4,27.8,00.0,38.4,31.2,21.8,0000.0,0005.22,0014.48,0003.65
2022-06-11 14:12:00,,0825.1,4.99,0.00,29.4,27.9,00.0,38.4,31.3,22.5,0000.0,0005.22,0014.52,0003.64
2022-06-11 14:13:00,,0825.1,4.99,0.00,29.5,28.0,00.0,38.4,31.3,21.7,0000.0,0005.14,0013.93,0003.63
2022-06-11 14:14:00,,0825.1,5.00,0.00,29.5,28.2,00.0,38.4,31.3,22.2,0000.0,0005.05,0012.72,0003.62
2022-06-11 14:15:00,,0825.1,5.01,0.00,29.5,28.3,00.0,38.4,31.4,22.5,0000.0,0005.09,0012.96,0003.62
2022-06-11 14:16:00,,0825.1,5.00,0.00,29.5,28.4,00.0,38.4,31.4,20.9,0000.0,0005.12,0013.17,0003.62
2022-06-11 14:17:00,,0825.1,5.00,0.00,29.5,28.5,00.0,38.4,31.4,20.8,0000.0,0005.14,0012.56,0003.61
2022-06-11 14:18:00,,0825.1,4.99,0.00,29.6,28.6,00.0,38.4,31.5,21.4,0000.0,0005.16,0012.54,0003.61
2022-06-11 14:19:00,,0825.1,4.99,0.00,29.6,28.6,00.0,38.4,31.5,22.2,0000.0,0005.22,0012.27,0003.61
2022-06-11 14:20:00,,0825.1,4.99,0.00,29.6,28.7,00.0,38.4,31.5,22.4,0000.0,0005.26,0012.14,0003.62
2022-06-11 14:21:00,,0825.1,5.01,0.00,29.6,28.7,00.0,38.4,31.6,20.6,0000.0,0005.28,0011.92,0003.61
2022-06-11 14:22:00,,0825.0,5.00,0.00,29.6,28.2,00.0,38.4,31.4,20.0,0000.0,0005.29,0011.46,0003.61
2022-06-11 14:23:00,,0825.0,5.00,0.00,29.6,27.6,00.0,38.3,31.3,19.6,0000.0,0005.31,0011.80,0003.59
2022-06-11 14:24:00,,0825.0,4.99,0.00,29.5,27.5,00.0,38.3,31.2,20.3,0000.0,0005.33,0012.13,0003.58
2022-06-11 14:25:00,,0825.0,5.01,0.00,29.4,27.5,00.0,38.3,31.2,19.6,0000.0,0005.33,0012.48,0003.57
2022-06-11 14:26:00,,0825.0,5.01,0.00,29.4,27.7,00.0,38.3,31.2,21.1,0000.0,0005.29,0012.50,0003.57
2022-06-11 14:27:00,,0825.0,5.00,0.00,29.4,27.8,00.0,38.3,31.2,20.4,0000.0,0005.27,0012.63,0003.55
2022-06-11 14:28:00,,0825.0,4.99,0.00,29.4,27.9,00.0,38.3,31.2,20.0,0000.0,0005.25,0013.46,0003.55
2022-06-11 14:29:00,,0825.1,4.99,0.00,29.4,28.0,00.0,38.3,31.3,21.0,0000.0,0005.25,0013.58,0003.54
2022-06-11 14:30:00,,0825.0,5.00,0.00,29.4,28.2,00.0,38.3,31.3,20.6,0000.0,0005.25,0015.18,0003.54
2022-06-11 14:31:00,,0825.0,5.00,0.00,29.5,28.3,00.0,38.3,31.4,21.8,0000.0,0005.27,0016.67,0003.54
2022-06-11 14:32:00,,0825.1,5.00,0.00,29.5,28.4,00.0,38.3,31.4,23.3,0000.0,0005.25,0016.66,0003.55
2022-06-11 14:33:00,,0825.0,4.99,0.00,29.5,28.5,00.0,38.3,31.4,27.1,0000.0,0005.30,0016.74,0003.57
2022-06-11 14:34:00,,0825.0,5.00,0.00,29.5,28.6,00.0,38.3,31.5,26.7,0000.0,0005.31,0016.61,0003.60
2022-06-11 14:35:00,,0825.1,5.00,0.00,29.6,28.6,00.0,38.3,31.5,25.8,0000.0,0005.38,0016.63,0003.62
2022-06-11 14:36:00,,0825.0,5.00,0.00,29.5,28.0,00.0,38.3,31.4,23.8,0000.0,0005.39,0016.69,0003.62
2022-06-11 14:37:00,,0825.0,4.98,0.00,29.5,27.5,00.0,38.2,31.2,23.8,0000.0,0005.46,0017.09,0003.63
2022-06-11 14:38:00,,0825.0,5.01,0.00,29.4,27.4,00.0,38.2,31.2,23.5,0000.0,0005.54,0017.53,0003.64
2022-06-11 14:39:00,,0825.0,5.00,0.00,29.4,27.5,00.0,38.2,31.1,23.9,0000.0,0005.50,0016.57,0003.65
2022-06-11 14:40:00,,0825.0,4.99,0.00,29.3,27.6,00.0,38.2,31.1,25.3,0000.0,0005.49,0017.29,0003.66
2022-06-11 14:41:00,,0825.0,5.00,0.00,29.3,27.7,00.0,38.2,31.2,25.5,0000.0,0005.46,0015.85,0003.67
2022-06-11 14:42:00,,0825.0,5.01,0.00,29.3,27.9,00.0,38.2,31.2,25.7,0000.0,0005.41,0014.15,0003.68
2022-06-11 14:43:00,,0825.0,5.00,0.00,29.4,28.0,00.0,38.2,31.3,26.6,0000.0,0005.47,0014.11,0003.70
2022-06-11 14:44:00,,0824.9,4.99,0.00,29.4,28.1,00.0,38.2,31.3,25.8,0000.0,0005.47,0014.01,0003.70
2022-06-11 14:45:00,,0824.9,5.00,0.00,29.4,28.3,00.0,38.2,31.3,27.5,0000.0,0005.46,0014.17,0003.70
2022-06-11 14:46:00,,0824.9,5.01,0.00,29.4,28.4,00.0,38.3,31.4,27.8,0000.0,0005.44,0014.91,0003.72
2022-06-11 14:47:00,,0824.9,4.99,0.00,29.5,28.5,00.0,38.3,31.4,26.7,0000.0,0005.50,0014.95,0003.75
2022-06-11 14:48:00,,0824.9,4.99,0.00,29.5,28.5,00.0,38.3,31.4,26.7,0000.0,0005.52,0014.60,0003.77
2022-06-11 14:49:00,,0824.9,4.99,0.00,29.5,28.1,00.0,38.2,31.4,27.1,0000.0,0005.54,0015.15,0003.81
2022-06-11 14:50:00,,0824.9,5.01,0.00,29.4,27.5,00.0,38.2,31.2,28.7,0000.0,0005.64,0015.66,0003.85
2022-06-11 14:51:00,,0824.9,5.00,0.00,29.4,27.3,00.0,38.2,31.1,27.9,0000.0,0005.74,0015.34,0003.88
2022-06-11 14:52:00,,0824.9,4.99,0.00,29.3,27.3,00.0,38.2,31.1,27.5,0000.0,0005.76,0015.87,0003.91
2022-06-11 14:53:00,,0824.9,5.00,0.00,29.3,27.5,00.0,38.2,31.0,27.9,0000.0,0005.81,0016.21,0003.93
2022-06-11 14:54:00,,0824.9,5.01,0.00,29.3,27.6,00.0,38.2,31.1,27.5,0000.0,0005.79,0016.32,0003.94
2022-06-11 14:55:00,,0824.9,4.99,0.00,29.3,27.8,00.0,38.2,31.1,28.5,0000.0,0005.84,0016.95,0003.95
2022-06-11 14:56:00,,0824.9,5.00,0.00,29.3,27.9,00.0,38.2,31.2,28.8,0000.0,0005.89,0017.38,0003.97
2022-06-11 14:57:00,,0824.9,4.99,0.00,29.3,28.0,00.0,38.2,31.2,28.6,0000.0,0005.91,0016.50,0003.98
2022-06-11 14:58:00,,0824.9,4.99,0.00,29.3,28.2,00.0,38.2,31.2,27.8,0000.0,0005.91,0016.09,0003.99
2022-06-11 14:59:00,,0824.9,5.00,0.00,29.4,28.3,00.0,38.2,31.3,28.1,0000.0,0005.92,0016.63,0003.99
